This demonstration page uses our WeatherBlox Daily Observations layout. Learn more.

Hourly Observations for July 6, 2017

Temp ( °F °C ) Dew Point ( °F °C ) Humidity (%) Winds ( mph kmh ) Pressure ( in mb ) Visibility ( mi km ) Precip ( " mm )
12:54 am 00:54 Clear 73 22.8 64 17.8 74 74 Calm 30.05 1018 10 16.0934 0 0
1:54 am 01:54 Clear 71 21.7 65 18.3 81 81 SSE 5 7 30.05 1018 10 16.0934 0 0
2:54 am 02:54 Clear 70 21.1 65 18.3 84 84 N 3 6 30.08 1019 10 16.0934 0 0
3:54 am 03:54 Clear 72 22.2 66 18.9 82 82 NW 3 6 30.08 1019 10 16.0934 0 0
4:54 am 04:54 Clear 73 22.8 66 18.9 79 79 SW 5 7 30.04 1017 10 16.0934 0 0
5:54 am 05:54 Clear 69 20.6 66 18.9 90 90 SSE 9 15 29.97 1015 10 16.0934 0 0
6:54 am 06:54 Sunny 69 20.6 66 18.9 90 90 S 6 9 30.01 1016 10 16.0934 0 0
7:54 am 07:54 Sunny 73 22.8 66 18.9 79 79 S 5 7 30.04 1017 10 16.0934 0 0
8:54 am 08:54 Sunny 77 25 66 18.9 69 69 SSW 6 9 30.03 1017 10 16.0934 0 0
9:54 am 09:54 Sunny 79 26.1 66 18.9 65 65 SW 13 20 30.04 1017 10 16.0934 0 0
10:54 am 10:54 Sunny 83 28.3 68 20 61 61 SSW 10 17 30.02 1017 10 16.0934 0 0
11:54 am 11:54 Sunny 87 30.6 69 20.6 55 55 SW 12 19 30.02 1017 10 16.0934 0 0
12:54 pm 12:54 Sunny 89 31.7 71 21.7 55 55 SW 13 20 30.01 1016 10 16.0934 0 0
1:54 pm 13:54 Sunny 92 33.3 72 22.2 52 52 SSW 13 20 29.98 1015 10 16.0934 0 0
2:54 pm 14:54 Sunny 93 33.9 72 22.2 50 50 WSW 13 20 29.96 1014 10 16.0934 0 0
3:54 pm 15:54 Sunny 95 35 70 21.1 44 44 SW 17 28 29.94 1014 10 16.0934 0 0
4:54 pm 16:54 Sunny 95 35 72 22.2 47 47 SW 8 13 29.94 1014 10 16.0934 0 0
5:54 pm 17:54 Sunny 94 34.4 72 22.2 49 49 SSW 12 19 29.93 1013 10 16.0934 0 0
6:54 pm 18:54 Sunny 92 33.3 73 22.8 54 54 SSW 8 13 29.91 1013 10 16.0934 0 0
7:54 pm 19:54 Sunny 92 33.3 73 22.8 54 54 SSW 6 9 29.91 1013 10 16.0934 0 0
8:54 pm 20:54 Sunny 91 32.8 74 23.3 57 57 WSW 3 6 29.92 1013 10 16.0934 0 0
9:54 pm 21:54 Clear 85 29.4 74 23.3 70 70 NW 3 6 29.94 1014 10 16.0934 0 0
10:54 pm 22:54 Clear 85 29.4 75 23.9 72 72 WSW 3 6 29.95 1014 10 16.0934 0 0
11:54 pm 23:54 Clear 81 27.2 74 23.3 79 79 Calm 29.96 1015 10 16.0934 0 0

Powered by AerisWeather